sat.trackr.live / text

‹ back to catalog

STARLINK-32150

NORAD 60294 · 2024-132S

PAYLOAD ACTIVE UNKNOWN

§ Identity

Operator
Country
US
Launch date
2024-07-28
Launch site
AFETR
Launch vehicle
Mass (kg)
RCS (m²)

Purposes: comms

External: N2YO · Heavens-Above · Gunter

§ Orbital elements

Epoch: 2026-05-25T00:24:11.794752Z

Period
94.10 min
Inclination
53.1588°
Eccentricity
0.0001652
Mean motion
15.30227164 rev/d
Perigee alt
474.0 km
Apogee alt
476.3 km
Semi-major
6,853.3 km
B*
1.8096e-4
RAAN
58.0880°
Arg perigee
147.5553°
Mean anomaly
212.5549°
Rev number
10,324

§ Raw data

STARLINK-321501 60294U 24132S   26145.01680318  .00005008  00000+0  18096-3 0  99972 60294  53.1588  58.0880 0001652 147.5553 212.5549 15.30227164103245

JSON: /api/v1/satellites/60294 · /tle

For live sub-satellite position, see the globe view (requires WebGL).

§ Visibility from observer

Set your observer location to see the next 7 days of passes ≥ 10°. The values pass through the URL so the page stays shareable.

No JS? Fill the form by hand. The geolocation button needs JavaScript.